Regional Weather Roundup
Issued by NWS Newport/Morehead, NC

Current Version | Previous Version | Graphics & Text | Print | Product List | Glossary Off
Versions: 1 2 3 4 5 6 7 8 9 10 11 12 13 14 15 16 17 18 19 20 21 22 23 24 25 26 27 28 29 30 31 32 33 34 35 36 37 38 39 40 41 42 43 44 45 46 47 48 49 50

000
ASUS42 KMHX 040213
RWRMHX
WEATHER ROUNDUP FOR EASTERN NORTH CAROLINA
NATIONAL WEATHER SERVICE NEWPORT/MOREHEAD CITY NC
1000 PM EDT FRI JUL 03 2015

NOTE: "FAIR" INDICATES FEW OR NO CLOUDS BELOW 12,000 FEET
WITH NO SIGNIFICANT WEATHER AND/OR OBSTRUCTIONS TO VISIBILITY

NCZ015>017-031-032-045>047-102-103-040300-
NORTH COAST

CITY           SKY/WX    TMP DP  RH WIND       PRES   REMARKS
EDENTON        CLOUDY    75  72  89 SW6       29.90R
ELIZABETH CITY LGT RAIN  75  73  93 CALM      29.89S
KITTY HAWK     DRIZZLE   74  72  92 CALM      29.91R
MANTEO         DRIZZLE   76  73  91 SW8       29.92R

$$

NCZ045>047-081-094-103-104-040300-
CENTRAL COAST

CITY           SKY/WX    TMP DP  RH WIND       PRES   REMARKS
FRISCO         CLOUDY    78  74  87 SW13      29.92R
SWANQUARTER      N/A     79 N/A N/A SW17      29.88R

$$

NCZ095-097-098-100-101-040300-
SOUTHERN COAST

CITY           SKY/WX    TMP DP  RH WIND       PRES   REMARKS
BEAUFORT       MOCLDY    79  77  94 SW15G24   29.91R
CEDAR ISLAND     N/A     79 N/A N/A S6G14     29.94S
JACKSONVILLE   NOT AVBL
PINEY ISLAND   MOCLDY   N/A N/A N/A S9        29.91R
WILMINGTON     MOCLDY    75  71  87 SW10      29.92R


$$

NCZ011>013-027>030-043-044-078>080-089-090>093-098-040300-
COASTAL PLAIN

CITY           SKY/WX    TMP DP  RH WIND       PRES   REMARKS
AHOSKIE        PTCLDY   N/A N/A N/A CALM      29.89R
CLINTON        PTCLDY    77  74  91 SW3       29.91R
ELIZABETHTOWN  CLEAR     77  73  86 SW8       29.92R
GOLDSBORO      PTCLDY    75  73  94 VRB3      29.87R FOG
GREENVILLE     PTCLDY    73  73 100 CALM      29.91S
HAVELOCK       MOCLDY    77  74  90 SW8       29.92R
KENANSVILLE    PTCLDY    74  72  92 SW3       29.91R
KINSTON        NOT AVBL
NEW BERN       PTCLDY    77  74  90 S7        29.91R
RICHLANDS      PTCLDY    73  68  83 SW9       29.91R
ROCKY MOUNT    MOCLDY    75  73  93 CALM      29.88S
WASHINGTON     PTCLDY    74  72  96 CALM      29.90R
WHITEVILLE     PTCLDY    74  71  90 SW9       29.94R

$$

AMZ130-135-150-152-154-156-158-170-250-252-270-ANZ085-086-088-633-658-670-040300-
MARINE OBSERVATIONS

STATION/POSITION TIME  TEMP    WIND        PRES    WAVE   SWELL
                       AIR SEA DIR/SP/G            HT/PER HT/PER
                 (UTC) (F)     (DEG/KT/KT) (MB)    (FT/S) (FT/S)
CHESAPEAKE LIGHT 0200   76     120/ 19/ 21 1013.2
64 E VA BEACH    0150   77 77  130/ 12/ 14 1013.2    3/ 8   3/ 8
DUCK             0100   74 76  140/  7/  9 1011.4
2 E DUCK         0111      78                N/A     3/15   2/15
OREGON INLET     0100   77 83  220/  8/ 10 1012.3
13E OREGON INLT  0200      71                N/A     4/ 7
HATTERAS CG      0100   78 79  210/  9/ 14 1012.1
DIAMOND BUOY     0150   81 81  230/ 19/ 25 1012.5    6/ 6   2/15
CAPE LOOKOUT     0200   79     220/ 15/ 20 1012.7
BEAUFORT LAB     0100   80 81  210/ 13/ 17 1011.7
30 SE NEW RVR IN 0108   80 80  230/ 19/ 27 1012.7
27 SE WRIGHTSVLE 0100      80  240/ 17/ 19   N/A
5 SE WRIGHTSVLE  0108   78 79  240/ 19/ 25 1012.6
225 S CAPE HAT   0150   81 80  230/ 14/ 16 1019.0    5/ 9   3/ 9
41 SE CHARLESTON 0150   82 81  190/ 14/ 16 1015.5    3/ 9   2/ 9

$$



USA.gov is the U.S. government's official web portal to all federal, state and local government web resources and services.